TimeCDT,TemperatureF,Dew PointF,Humidity,Sea Level PressureIn,VisibilityMPH,Wind Direction,Wind SpeedMPH,Gust SpeedMPH,PrecipitationIn,Events,Conditions,WindDirDegrees,DateUTC
12:15 AM,58.5,19.0,22,29.73,10.0,SSW,8.1,-,N/A,,Clear,200,2013-04-08 05:15:00
12:35 AM,55.8,18.3,23,29.73,10.0,SSW,4.6,-,N/A,,Clear,200,2013-04-08 05:35:00
12:55 AM,55.8,18.7,23,29.73,10.0,SW,8.1,-,N/A,,Clear,220,2013-04-08 05:55:00
1:15 AM,56.7,20.1,24,29.73,10.0,SW,10.4,-,N/A,,Clear,230,2013-04-08 06:15:00
1:35 AM,58.1,19.2,22,29.72,10.0,WSW,9.2,-,N/A,,Clear,240,2013-04-08 06:35:00
1:55 AM,56.1,18.9,23,29.72,10.0,WSW,10.4,-,N/A,,Clear,240,2013-04-08 06:55:00
2:15 AM,55.8,19.0,24,29.71,10.0,WSW,9.2,-,N/A,,Clear,250,2013-04-08 07:15:00
2:35 AM,55.0,18.9,24,29.71,10.0,WSW,6.9,-,N/A,,Clear,240,2013-04-08 07:35:00
2:55 AM,54.7,19.0,25,29.71,10.0,ESE,5.8,-,N/A,,Clear,120,2013-04-08 07:55:00
3:15 AM,56.3,19.2,24,29.71,10.0,SSE,3.5,-,N/A,,Clear,160,2013-04-08 08:15:00
3:35 AM,55.9,19.2,24,29.70,10.0,SW,4.6,-,N/A,,Clear,220,2013-04-08 08:35:00
3:55 AM,56.5,19.2,23,29.69,10.0,SW,5.8,-,N/A,,Clear,220,2013-04-08 08:55:00
4:15 AM,52.3,19.0,27,29.68,10.0,SSW,4.6,-,N/A,,Clear,200,2013-04-08 09:15:00
4:35 AM,49.5,18.5,29,29.68,10.0,South,4.6,-,N/A,,Clear,180,2013-04-08 09:35:00
4:55 AM,52.5,19.4,27,29.68,10.0,SW,3.5,-,N/A,,Clear,220,2013-04-08 09:55:00
5:15 AM,49.8,19.4,30,29.68,10.0,Calm,Calm,-,N/A,,Clear,0,2013-04-08 10:15:00
5:35 AM,53.4,19.9,27,29.68,10.0,SW,3.5,-,N/A,,Clear,220,2013-04-08 10:35:00
5:55 AM,48.6,19.2,31,29.69,10.0,SSE,4.6,-,N/A,,Clear,150,2013-04-08 10:55:00
6:15 AM,48.2,19.9,33,29.70,10.0,SSW,5.8,-,N/A,,Clear,200,2013-04-08 11:15:00
6:35 AM,48.9,21.4,34,29.70,10.0,WSW,6.9,-,N/A,,Clear,240,2013-04-08 11:35:00
6:55 AM,50.0,20.8,32,29.70,10.0,SW,3.5,-,N/A,,Clear,230,2013-04-08 11:55:00
7:15 AM,46.9,20.7,35,29.71,10.0,Calm,Calm,-,N/A,,Clear,0,2013-04-08 12:15:00
7:35 AM,47.1,19.8,34,29.71,10.0,South,3.5,-,N/A,,Clear,190,2013-04-08 12:35:00
7:55 AM,48.4,20.5,33,29.72,10.0,Calm,Calm,-,N/A,,Clear,0,2013-04-08 12:55:00
8:15 AM,49.5,22.6,35,29.72,10.0,Calm,Calm,-,N/A,,Clear,0,2013-04-08 13:15:00
8:35 AM,59.9,25.5,27,29.72,10.0,WSW,8.1,-,N/A,,Clear,240,2013-04-08 13:35:00
8:55 AM,66.2,26.6,23,29.73,10.0,WSW,10.4,-,N/A,,Clear,240,2013-04-08 13:55:00
9:35 AM,70.9,28.4,21,29.74,10.0,WSW,9.2,-,N/A,,Clear,250,2013-04-08 14:35:00
9:55 AM,73.4,30.2,20,29.75,10.0,WSW,10.4,17.3,N/A,,Clear,250,2013-04-08 14:55:00
10:15 AM,76.3,31.5,19,29.75,10.0,West,11.5,-,N/A,,Clear,260,2013-04-08 15:15:00
10:35 AM,78.8,32.0,18,29.74,10.0,WSW,17.3,23.0,N/A,,Clear,250,2013-04-08 15:35:00
10:55 AM,79.9,32.0,18,29.74,10.0,WSW,11.5,-,N/A,,Clear,250,2013-04-08 15:55:00
11:15 AM,81.5,32.0,17,29.74,10.0,WSW,16.1,20.7,N/A,,Clear,240,2013-04-08 16:15:00
11:35 AM,82.4,31.5,16,29.73,10.0,West,12.7,23.0,N/A,,Clear,260,2013-04-08 16:35:00
11:55 AM,82.9,31.1,15,29.72,10.0,WSW,11.5,21.9,N/A,,Clear,240,2013-04-08 16:55:00
12:15 PM,83.8,31.3,15,29.72,10.0,WSW,17.3,23.0,N/A,,Clear,240,2013-04-08 17:15:00
12:35 PM,85.5,31.5,14,29.70,10.0,SW,12.7,19.6,N/A,,Clear,230,2013-04-08 17:35:00
12:55 PM,86.2,30.6,14,29.69,10.0,WSW,12.7,21.9,N/A,,Clear,240,2013-04-08 17:55:00
1:15 PM,86.4,30.7,14,29.68,10.0,SW,17.3,25.3,N/A,,Clear,220,2013-04-08 18:15:00
1:35 PM,87.6,31.1,13,29.65,7.0,SSW,15.0,19.6,N/A,,Clear,210,2013-04-08 18:35:00
2:35 PM,90.0,30.7,12,29.60,10.0,SSW,12.7,24.2,N/A,,Clear,210,2013-04-08 19:35:00
3:15 PM,91.4,30.9,12,29.58,10.0,South,11.5,21.9,N/A,,Clear,170,2013-04-08 20:15:00
3:55 PM,91.8,30.6,11,29.55,10.0,SW,17.3,24.2,N/A,,Clear,230,2013-04-08 20:55:00
4:35 PM,92.5,30.0,11,29.52,10.0,South,15.0,21.9,N/A,,Clear,180,2013-04-08 21:35:00
4:55 PM,93.0,29.5,10,29.51,10.0,SW,21.9,25.3,N/A,,Clear,220,2013-04-08 21:55:00
5:15 PM,91.6,29.1,11,29.50,10.0,SSW,15.0,19.6,N/A,,Clear,200,2013-04-08 22:15:00
5:35 PM,91.9,29.1,11,29.50,7.0,SW,17.3,20.7,N/A,,Clear,220,2013-04-08 22:35:00
5:55 PM,91.6,28.8,11,29.50,10.0,SW,21.9,27.6,N/A,,Clear,220,2013-04-08 22:55:00
6:15 PM,91.0,28.6,11,29.49,10.0,SW,15.0,-,N/A,,Clear,220,2013-04-08 23:15:00
6:35 PM,90.7,28.4,11,29.49,10.0,South,12.7,20.7,N/A,,Clear,190,2013-04-08 23:35:00
6:55 PM,90.3,28.4,11,29.49,10.0,SSW,11.5,24.2,N/A,,Clear,200,2013-04-08 23:55:00
7:15 PM,89.6,28.4,11,29.49,10.0,SW,11.5,20.7,N/A,,Clear,220,2013-04-09 00:15:00
7:35 PM,88.3,27.5,11,29.48,10.0,SSW,13.8,19.6,N/A,,Clear,210,2013-04-09 00:35:00
7:55 PM,86.0,27.3,12,29.47,10.0,South,8.1,-,N/A,,Clear,190,2013-04-09 00:55:00
8:15 PM,81.9,25.9,13,29.46,10.0,SE,10.4,-,N/A,,Clear,140,2013-04-09 01:15:00
8:55 PM,81.0,25.2,13,29.47,10.0,SSE,11.5,-,N/A,,Clear,150,2013-04-09 01:55:00
9:35 PM,75.2,23.9,15,29.48,10.0,SSE,8.1,-,N/A,,Clear,150,2013-04-09 02:35:00
9:55 PM,75.2,23.9,15,29.48,10.0,SSE,9.2,-,N/A,,Clear,160,2013-04-09 02:55:00
10:15 PM,75.2,24.3,15,29.48,10.0,SSE,11.5,-,N/A,,Clear,150,2013-04-09 03:15:00
10:55 PM,75.2,24.4,15,29.49,10.0,SSE,10.4,-,N/A,,Clear,150,2013-04-09 03:55:00
11:15 PM,74.8,24.4,15,29.49,10.0,SE,12.7,-,N/A,,Clear,140,2013-04-09 04:15:00
11:35 PM,73.9,27.1,18,29.48,10.0,SE,15.0,-,N/A,,Clear,140,2013-04-09 04:35:00
11:55 PM,73.9,35.4,25,29.48,10.0,SE,19.6,-,N/A,,Clear,140,2013-04-09 04:55:00